Time,TemperatureF,DewpointF,PressureIn,WindDirection,WindDirectionDegrees,WindSpeedMPH,WindSpeedGustMPH,Humidity,HourlyPrecipIn,Conditions,Clouds,dailyrainin,SoftwareType,DateUTC
2013-08-18 11:02:00,89.6,75.8,29.95,SE,135,5.1,-999.0,64,-99.99,,,0.00,Acu-Link.com,2013-08-18 15:02:00,
2013-08-18 11:17:00,89.6,77.2,29.95,ESE,112,5.1,-999.0,67,-99.99,,,0.00,Acu-Link.com,2013-08-18 15:17:00,
2013-08-18 11:32:00,89.2,78.1,29.95,East,90,6.7,-999.0,70,-99.99,,,0.00,Acu-Link.com,2013-08-18 15:32:00,
2013-08-18 11:48:00,89.8,77.8,29.96,ESE,112,8.9,-999.0,68,-99.99,,,0.00,Acu-Link.com,2013-08-18 15:48:00,
2013-08-18 12:03:00,90.3,76.5,29.95,ESE,112,6.3,-999.0,64,-99.99,,,0.00,Acu-Link.com,2013-08-18 16:03:00,
2013-08-18 12:18:00,90.9,76.5,29.94,ESE,112,11.4,-999.0,63,-99.99,,,0.00,Acu-Link.com,2013-08-18 16:18:00,
2013-08-18 12:33:00,90.5,76.1,29.94,ESE,112,8.3,-999.0,63,-99.99,,,0.00,Acu-Link.com,2013-08-18 16:33:00,
2013-08-18 12:49:00,91.0,76.7,29.93,ENE,67,7.8,-999.0,63,-99.99,,,0.00,Acu-Link.com,2013-08-18 16:49:00,
2013-08-18 13:04:00,90.5,78.0,29.92,SE,135,11.9,-999.0,67,-99.99,,,0.00,Acu-Link.com,2013-08-18 17:04:00,
2013-08-18 13:19:00,90.0,77.9,29.92,East,90,14.5,-999.0,68,-99.99,,,0.00,Acu-Link.com,2013-08-18 17:19:00,
2013-08-18 13:34:00,90.1,78.6,29.91,ESE,112,11.9,-999.0,69,-99.99,,,0.00,Acu-Link.com,2013-08-18 17:34:00,
2013-08-18 13:49:00,89.8,77.3,29.91,ESE,112,12.5,-999.0,67,-99.99,,,0.00,Acu-Link.com,2013-08-18 17:49:00,
2013-08-18 14:05:00,88.0,78.2,29.91,SE,135,5.8,-999.0,73,-99.99,,,0.00,Acu-Link.com,2013-08-18 18:05:00,
2013-08-18 14:20:00,84.9,75.7,29.91,SW,225,4.7,-999.0,74,-99.99,,,0.00,Acu-Link.com,2013-08-18 18:20:00,
2013-08-18 14:35:00,82.8,75.2,29.92,SSW,202,4.7,-999.0,78,-99.99,,,0.00,Acu-Link.com,2013-08-18 18:35:00,
2013-08-18 14:50:00,82.9,75.7,29.91,West,270,4.3,-999.0,79,-99.99,,,0.00,Acu-Link.com,2013-08-18 18:50:00,
2013-08-18 15:05:00,83.5,75.9,29.91,ESE,112,2.7,-999.0,78,-99.99,,,0.00,Acu-Link.com,2013-08-18 19:05:00,
2013-08-18 15:21:00,84.9,76.9,29.90,West,270,3.1,-999.0,77,-99.99,,,0.00,Acu-Link.com,2013-08-18 19:21:00,
2013-08-18 15:36:00,85.1,76.3,29.89,SSE,157,3.1,-999.0,75,-99.99,,,0.00,Acu-Link.com,2013-08-18 19:36:00,
2013-08-18 15:51:00,87.8,77.2,29.89,SE,135,2.7,-999.0,71,-99.99,,,0.00,Acu-Link.com,2013-08-18 19:51:00,
2013-08-18 16:06:00,86.4,76.7,29.89,SSW,202,2.2,-999.0,73,-99.99,,,0.00,Acu-Link.com,2013-08-18 20:06:00,
2013-08-18 16:21:00,87.6,77.4,29.89,East,90,2.7,-999.0,72,-99.99,,,0.00,Acu-Link.com,2013-08-18 20:21:00,
2013-08-18 16:37:00,86.9,77.2,29.89,ESE,112,5.1,-999.0,73,-99.99,,,0.00,Acu-Link.com,2013-08-18 20:37:00,
2013-08-18 16:52:00,85.6,76.8,29.89,SE,135,7.8,-999.0,75,-99.99,,,0.00,Acu-Link.com,2013-08-18 20:52:00,
2013-08-18 17:07:00,86.0,75.9,29.88,ESE,112,5.1,-999.0,72,-99.99,,,0.00,Acu-Link.com,2013-08-18 21:07:00,
2013-08-18 17:22:00,86.4,76.2,29.88,ESE,112,5.8,-999.0,72,-99.99,,,0.00,Acu-Link.com,2013-08-18 21:22:00,
2013-08-18 17:38:00,87.1,76.1,29.88,SE,135,4.7,-999.0,70,-99.99,,,0.00,Acu-Link.com,2013-08-18 21:38:00,
2013-08-18 17:53:00,86.7,75.7,29.88,ESE,112,4.3,-999.0,70,-99.99,,,0.00,Acu-Link.com,2013-08-18 21:53:00,
2013-08-18 18:08:00,86.0,74.2,29.88,ESE,112,7.4,-999.0,68,-99.99,,,0.00,Acu-Link.com,2013-08-18 22:08:00,
2013-08-18 18:23:00,85.6,73.8,29.89,ESE,112,3.8,-999.0,68,-99.99,,,0.00,Acu-Link.com,2013-08-18 22:23:00,
2013-08-18 18:38:00,84.6,73.7,29.89,ESE,112,6.3,-999.0,70,-99.99,,,0.00,Acu-Link.com,2013-08-18 22:38:00,
2013-08-18 18:54:00,84.4,74.3,29.89,ESE,112,1.6,-999.0,72,-99.99,,,0.00,Acu-Link.com,2013-08-18 22:54:00,
2013-08-18 19:09:00,83.8,74.6,29.89,ESE,112,4.7,-999.0,74,-99.99,,,0.00,Acu-Link.com,2013-08-18 23:09:00,
2013-08-18 19:24:00,83.7,74.5,29.89,ESE,112,6.3,-999.0,74,-99.99,,,0.00,Acu-Link.com,2013-08-18 23:24:00,
2013-08-18 19:39:00,83.7,74.9,29.90,East,90,3.8,-999.0,75,-99.99,,,0.00,Acu-Link.com,2013-08-18 23:39:00,
2013-08-18 19:54:00,83.7,75.3,29.90,ENE,67,3.8,-999.0,76,-99.99,,,0.00,Acu-Link.com,2013-08-18 23:54:00,
2013-08-18 20:10:00,83.7,76.1,29.90,ENE,67,2.7,-999.0,78,-99.99,,,0.00,Acu-Link.com,2013-08-19 00:10:00,
2013-08-18 20:25:00,83.5,77.0,29.91,ESE,112,6.3,-999.0,81,-99.99,,,0.00,Acu-Link.com,2013-08-19 00:25:00,
2013-08-18 20:40:00,83.5,77.4,29.91,ESE,112,9.4,-999.0,82,-99.99,,,0.00,Acu-Link.com,2013-08-19 00:40:00,
2013-08-18 20:55:00,83.5,77.8,29.91,East,90,2.7,-999.0,83,-99.99,,,0.00,Acu-Link.com,2013-08-19 00:55:00,
2013-08-18 21:10:00,83.5,78.1,29.91,East,90,4.7,-999.0,84,-99.99,,,0.00,Acu-Link.com,2013-08-19 01:10:00,
2013-08-18 21:26:00,83.7,77.6,29.92,NNE,22,6.7,-999.0,82,-99.99,,,0.00,Acu-Link.com,2013-08-19 01:26:00,
2013-08-18 21:41:00,83.8,77.4,29.92,ESE,112,4.7,-999.0,81,-99.99,,,0.00,Acu-Link.com,2013-08-19 01:41:00,
2013-08-18 21:56:00,83.8,78.5,29.92,ESE,112,2.2,-999.0,84,-99.99,,,0.00,Acu-Link.com,2013-08-19 01:56:00,
2013-08-18 22:17:00,83.1,78.8,29.93,ESE,112,7.8,-999.0,87,-99.99,,,0.00,Acu-Link.com,2013-08-19 02:17:00,
2013-08-18 22:32:00,82.6,76.9,29.93,ESE,112,4.3,-999.0,83,-99.99,,,0.00,Acu-Link.com,2013-08-19 02:32:00,
2013-08-18 22:47:00,82.8,77.1,29.93,SSE,157,9.4,-999.0,83,-99.99,,,0.00,Acu-Link.com,2013-08-19 02:47:00,
2013-08-18 23:02:00,82.9,76.9,29.94,East,90,6.7,-999.0,82,-99.99,,,0.00,Acu-Link.com,2013-08-19 03:02:00,
2013-08-18 23:18:00,82.9,76.9,29.93,ESE,112,8.9,-999.0,82,-99.99,,,0.00,Acu-Link.com,2013-08-19 03:18:00,
2013-08-18 23:33:00,82.8,77.1,29.93,ENE,67,6.3,-999.0,83,-99.99,,,0.00,Acu-Link.com,2013-08-19 03:33:00,
2013-08-18 23:48:00,82.8,77.4,29.92,ESE,112,5.8,-999.0,84,-99.99,,,0.00,Acu-Link.com,2013-08-19 03:48:00,